Location: Melizzano
(41.1500°N, 14.5000°E)
Time: 13:47:28
(UTC+00:00)

BREEZE-M DEB (TANK) - Pass Details

Date: 11 May 2021
Orbit: 772 x 34280 km, 45.8° (Epoch: 19 June)

Event Time Altitude Azimuth Distance (km) Brightness Sun altitude
Rises 19:24:43 0° 291° (WNW) 3,297 8.3 -12.8°
Reaches altitude 10° 19:26:41 10° 293° (WNW) 2,317 7.3 -13.1°
Maximum altitude 19:30:53 75° 20° (NNE) 1,006 4.1 -13.7°
Enters shadow 19:38:56 13° 106° (ESE) 4,375 6.8 -14.9°
